Home   Weather   Coral Harbour   Past weeks

Flag for Canada Past Weather in Coral Harbour, Nunavut, Canada — Yesterday and Last 2 Weeks

Now
39 °F

Fog.


Feels Like: 35 °F
Forecast: N/A
Wind: 6 mph from South

Location: Coral Harbour

Current Time: Sep 24, 2016 at 5:44:13 PM

Latest Report: Sep 24, 2016 at 5:00 PM


Visibility: 15 mi

Pressure: 30.24 "Hg

Humidity: 87%

Dew Point: 36 °F

Location of Coral HarbourLocation

Past Weather in Coral Harbour — Graph

°F

Coral Harbour Temperature Yesterday

Maximum temperature yesterday: 50 °F (at 4:00 PM)
Minimum temperature yesterday: 30 °F (at 1:00 AM)
Average temperature yesterday: 37 °F

High & Low Weather Summary for the Past Weeks

 TemperatureHumidityPressure
High52 °F (Sep 10, 12:00 PM)100% (Sep 13, 7:00 AM)30.24 "Hg (Sep 13, 7:00 AM)
Low18 °F (Sep 17, 6:00 AM)43% (Sep 10, 5:00 PM)29.37 "Hg (Sep 20, 11:00 PM)
Average37 °F83%29.80 "Hg
* Reported Sep 9 4:00 PM — Sep 24 4:00 PM, Coral Harbour, Weather by CustomWeather, © 2016

Note: Actual official high and low records may vary slightly from our data, if they occured in-between our weather recording intervals... More about our weather records

Advertising

Coral Harbour Weather History for the Previous 24 Hours

Scroll right to see more
 ConditionsComfort  
Time TempWeatherWind HumidityBarometerVisibility
4:00 PM
Sat, Sep 24
39 °FPassing clouds.6 mph87%30.24 "Hg15 mi
3:00 PM41 °FPassing clouds.6 mph81%30.23 "Hg15 mi
2:00 PM41 °FPassing clouds.7 mph81%30.22 "Hg15 mi
1:00 PM41 °FPassing clouds.5 mph76%30.21 "Hg15 mi
12:00 PM41 °FPassing clouds.6 mph76%30.20 "Hg15 mi
11:00 AM39 °FPassing clouds.5 mph81%30.19 "Hg15 mi
10:00 AM36 °FPassing clouds.2 mph87%30.19 "Hg15 mi
9:00 AM36 °FPassing clouds.2 mph81%30.17 "Hg15 mi
8:00 AM32 °FPassing clouds.3 mph93%30.16 "Hg15 mi
7:00 AM28 °FClear.8 mph93%30.14 "Hg15 mi
6:00 AM28 °FClear.3 mph93%30.14 "Hg15 mi
5:00 AM28 °FClear.8 mph93%30.13 "Hg15 mi
4:00 AM28 °FClear.9 mph93%30.12 "Hg15 mi
3:00 AM30 °FClear.6 mph93%30.11 "Hg15 mi
2:00 AM30 °FPassing clouds.8 mph93%30.09 "Hg15 mi
1:00 AM30 °FPassing clouds.7 mph93%30.09 "Hg15 mi
12:00 AM32 °FPassing clouds.2 mph93%30.08 "Hg15 mi
11:00 PM
Fri, Sep 23
34 °FPassing clouds.8 mph87%30.06 "Hg15 mi
10:00 PM32 °FPassing clouds.3 mph93%30.06 "Hg15 mi
9:00 PM34 °FPassing clouds.2 mph87%30.05 "Hg15 mi
8:00 PM36 °FPassing clouds.8 mph87%30.04 "Hg15 mi
7:00 PM39 °FPassing clouds.9 mph81%30.03 "Hg15 mi
6:00 PM41 °FScattered clouds.3 mph81%30.02 "Hg15 mi
5:00 PM43 °FScattered clouds.3 mph76%30.02 "Hg15 mi
Weather by CustomWeather, © 2016

See weather overviewHow to use our weather pages